RYR5368 LECH-EDLV

Flight info

Callsign RYR5368
Flight time 1h 51m
Altitude 38000
Route MATEX N608 GIROM DCT ATSUP DCT MOU DCT LUTAX/N0444F390 UM163 DIK N853 KENUM DCT LMA LMA1W
Aircraft B738/M-SDE3FGILRWY/SB1

Departure

Time 2026-05-08 14:49
Airport Castellón-Costa Azahar Airport (LECH)

Arrival

Time 2026-05-08 16:40
Airport Weeze (Niederrhein) Airport (EDLV)
Time Latitude Longitude Altitude Speed Heading
2026-05-08 14:18 40.20643 0.06718 1098 ft 0 kts 148°
2026-05-08 14:40 40.20644 0.06717 1101 ft 2 kts 148°
2026-05-08 14:40 40.20665 0.06699 1124 ft 4 kts 148°
2026-05-08 14:40 40.20688 0.06680 1097 ft 3 kts 148°
2026-05-08 14:41 40.20709 0.06668 1098 ft 4 kts 185°
2026-05-08 14:41 40.20728 0.06683 1101 ft 4 kts 235°
2026-05-08 14:41 40.20735 0.06697 1101 ft 1 kts 237°
2026-05-08 14:41 40.20736 0.06698 1101 ft 0 kts 237°
2026-05-08 14:44 40.20724 0.06673 1101 ft 5 kts 237°
2026-05-08 14:44 40.20703 0.06630 1101 ft 6 kts 237°
2026-05-08 14:44 40.20683 0.06589 1099 ft 5 kts 237°
2026-05-08 14:45 40.20662 0.06547 1100 ft 5 kts 237°
2026-05-08 14:45 40.20643 0.06506 1101 ft 5 kts 241°
2026-05-08 14:45 40.20639 0.06459 1101 ft 5 kts 283°
2026-05-08 14:45 40.20662 0.06424 1099 ft 5 kts 323°
2026-05-08 14:46 40.20690 0.06396 1101 ft 5 kts 320°
2026-05-08 14:46 40.20704 0.06356 1101 ft 5 kts 270°
2026-05-08 14:46 40.20692 0.06314 1101 ft 5 kts 243°
2026-05-08 14:46 40.20676 0.06275 1101 ft 5 kts 238°
2026-05-08 14:47 40.20658 0.06238 1098 ft 5 kts 238°
2026-05-08 14:47 40.20641 0.06201 1101 ft 5 kts 243°
2026-05-08 14:47 40.20638 0.06157 1101 ft 5 kts 284°
2026-05-08 14:47 40.20661 0.06125 1100 ft 5 kts 325°
2026-05-08 14:48 40.20689 0.06100 1102 ft 5 kts 327°
2026-05-08 14:48 40.20719 0.06075 1102 ft 6 kts 327°
2026-05-08 14:48 40.20755 0.06052 1101 ft 6 kts 353°
2026-05-08 14:48 40.20785 0.06087 1101 ft 7 kts 58°
2026-05-08 14:49 40.20910 0.06340 1108 ft 66 kts 57°
2026-05-08 14:49 40.21273 0.07072 1134 ft 124 kts 57°
2026-05-08 14:49 40.21828 0.08183 1225 ft 163 kts 57°
2026-05-08 14:49 40.22455 0.09391 1953 ft 157 kts 59°
2026-05-08 14:50 40.23069 0.10640 2466 ft 169 kts 59°
2026-05-08 14:50 40.23745 0.12048 2741 ft 197 kts 59°
2026-05-08 14:50 40.24519 0.13648 3028 ft 215 kts 59°
2026-05-08 14:50 40.25337 0.15329 3503 ft 223 kts 58°
2026-05-08 14:51 40.26183 0.17064 4138 ft 226 kts 58°
2026-05-08 14:51 40.27047 0.18829 4632 ft 239 kts 57°
2026-05-08 14:51 40.28271 0.20399 4825 ft 263 kts 33°
2026-05-08 14:51 40.29979 0.21415 5243 ft 276 kts 18°
2026-05-08 14:52 40.31870 0.22012 5791 ft 284 kts 359°
2026-05-08 14:52 40.35568 0.20408 7233 ft 284 kts 335°
2026-05-08 14:52 40.37415 0.19411 7898 ft 289 kts 336°
2026-05-08 14:53 40.39345 0.18632 8632 ft 295 kts 354°
2026-05-08 14:53 40.41388 0.18989 9439 ft 300 kts 18°
2026-05-08 14:53 40.43351 0.19970 10197 ft 304 kts 21°
2026-05-08 14:53 40.45369 0.21053 10477 ft 325 kts 21°
2026-05-08 14:54 40.47522 0.22213 10844 ft 341 kts 21°
2026-05-08 14:54 40.49744 0.23392 11472 ft 347 kts 20°
2026-05-08 14:54 40.51999 0.24573 12213 ft 350 kts 20°
2026-05-08 14:54 40.54248 0.25744 12942 ft 354 kts 20°
2026-05-08 14:55 40.56565 0.26906 13693 ft 358 kts 16°
2026-05-08 14:55 40.58959 0.27885 14395 ft 362 kts 13°
2026-05-08 14:55 40.61396 0.28785 15034 ft 367 kts 12°
2026-05-08 14:55 40.63877 0.29683 15655 ft 372 kts 12°
2026-05-08 14:56 40.66392 0.30604 16280 ft 378 kts 12°
2026-05-08 14:56 40.68937 0.31551 16879 ft 383 kts 12°
2026-05-08 14:56 40.71518 0.32526 17524 ft 388 kts 11°
2026-05-08 14:56 40.73241 0.33181 17952 ft 391 kts 11°
2026-05-08 14:57 40.75869 0.34186 18547 ft 396 kts 11°
2026-05-08 14:57 40.79399 0.35541 19348 ft 399 kts 11°
2026-05-08 14:57 40.82075 0.36568 19851 ft 404 kts 11°
2026-05-08 14:57 40.84780 0.37606 20363 ft 405 kts 11°
2026-05-08 14:58 40.86623 0.38313 20665 ft 410 kts 11°
2026-05-08 14:58 40.89380 0.39369 21128 ft 416 kts 11°
2026-05-08 14:58 40.92173 0.40440 21669 ft 419 kts 11°
2026-05-08 14:58 40.94984 0.41520 22219 ft 423 kts 11°
2026-05-08 14:59 40.97787 0.42598 22722 ft 427 kts 12°
2026-05-08 14:59 41.03541 0.44808 23647 ft 434 kts 11°
2026-05-08 14:59 41.06456 0.45901 24071 ft 437 kts 11°
2026-05-08 15:00 41.09394 0.46998 24528 ft 439 kts 11°
2026-05-08 15:00 41.12340 0.48105 24984 ft 442 kts 11°
2026-05-08 15:00 41.15300 0.49242 25413 ft 444 kts 12°
2026-05-08 15:00 41.18269 0.50396 25854 ft 446 kts 12°
2026-05-08 15:01 41.21255 0.51560 26279 ft 448 kts 12°
2026-05-08 15:01 41.24255 0.52728 26670 ft 451 kts 12°
2026-05-08 15:01 41.27273 0.53903 27069 ft 453 kts 12°
2026-05-08 15:01 41.30307 0.55083 27474 ft 456 kts 12°
2026-05-08 15:02 41.33359 0.56270 27871 ft 458 kts 12°
2026-05-08 15:02 41.36427 0.57462 28258 ft 460 kts 12°
2026-05-08 15:02 41.39510 0.58658 28636 ft 463 kts 12°
2026-05-08 15:02 41.42615 0.59861 28976 ft 465 kts 12°
2026-05-08 15:03 41.45735 0.61073 29342 ft 468 kts 12°
2026-05-08 15:03 41.48860 0.62289 29720 ft 469 kts 13°
2026-05-08 15:03 41.52012 0.63516 30077 ft 472 kts 13°
2026-05-08 15:03 41.55167 0.64739 30354 ft 473 kts 12°
2026-05-08 15:04 41.58325 0.65771 30635 ft 473 kts
2026-05-08 15:04 41.61558 0.66649 30913 ft 475 kts
2026-05-08 15:04 41.64807 0.67517 31197 ft 477 kts
2026-05-08 15:04 41.68062 0.68412 31465 ft 479 kts
2026-05-08 15:05 41.71335 0.69322 31733 ft 481 kts
2026-05-08 15:05 41.74616 0.70238 32038 ft 481 kts
2026-05-08 15:05 41.77892 0.71153 32450 ft 480 kts
2026-05-08 15:05 41.81161 0.72067 32901 ft 478 kts
2026-05-08 15:06 41.84408 0.72974 33323 ft 476 kts
2026-05-08 15:06 41.87648 0.73885 33690 ft 475 kts
2026-05-08 15:06 41.90882 0.74803 34005 ft 475 kts 10°
2026-05-08 15:06 41.94114 0.75724 34281 ft 475 kts 10°
2026-05-08 15:07 41.97352 0.76648 34544 ft 475 kts 10°
2026-05-08 15:07 42.00588 0.77572 34793 ft 475 kts 10°
2026-05-08 15:07 42.03778 0.78482 35030 ft 475 kts 10°
2026-05-08 15:07 42.07013 0.79407 35254 ft 476 kts 10°
2026-05-08 15:08 42.10251 0.80332 35487 ft 476 kts 11°
2026-05-08 15:08 42.13492 0.81260 35697 ft 476 kts 11°
2026-05-08 15:08 42.16735 0.82189 35908 ft 477 kts 11°
2026-05-08 15:08 42.19979 0.83119 36141 ft 477 kts 11°
2026-05-08 15:09 42.23227 0.84051 36361 ft 477 kts 11°
2026-05-08 15:09 42.26484 0.84987 36575 ft 478 kts 11°
2026-05-08 15:09 42.29737 0.85923 36790 ft 478 kts 11°
2026-05-08 15:09 42.32990 0.86860 37021 ft 478 kts 11°
2026-05-08 15:10 42.36242 0.87798 37230 ft 479 kts 11°
2026-05-08 15:10 42.39501 0.88738 37461 ft 479 kts 11°
2026-05-08 15:10 42.42759 0.89680 37654 ft 479 kts 11°
2026-05-08 15:10 42.46027 0.90624 37841 ft 480 kts 11°
2026-05-08 15:11 42.49298 0.91565 37995 ft 481 kts 11°
2026-05-08 15:11 42.52587 0.92509 37988 ft 485 kts 11°
2026-05-08 15:11 42.59187 0.94406 38015 ft 491 kts 11°
2026-05-08 15:12 42.65915 0.96345 38007 ft 496 kts 11°
2026-05-08 15:12 42.72726 0.98315 37984 ft 502 kts 11°
2026-05-08 15:13 42.79490 1.00755 37969 ft 504 kts 22°
2026-05-08 15:13 42.85891 1.04712 37966 ft 504 kts 25°
2026-05-08 15:14 42.92187 1.08794 37956 ft 505 kts 25°
2026-05-08 15:14 42.98539 1.12858 37946 ft 504 kts 25°
2026-05-08 15:15 43.04908 1.16878 37929 ft 503 kts 24°
2026-05-08 15:15 43.11259 1.20875 37922 ft 502 kts 24°
2026-05-08 15:16 43.17596 1.24872 37926 ft 500 kts 24°
2026-05-08 15:16 43.23909 1.28867 37920 ft 499 kts 24°
2026-05-08 15:17 43.30200 1.32860 37923 ft 497 kts 25°
2026-05-08 15:17 43.36470 1.36849 37933 ft 496 kts 25°
2026-05-08 15:18 43.42718 1.40832 37936 ft 494 kts 25°
2026-05-08 15:18 43.48948 1.44813 37936 ft 493 kts 25°
2026-05-08 15:19 43.55122 1.48768 37936 ft 492 kts 25°
2026-05-08 15:19 43.61317 1.52744 37943 ft 490 kts 25°
2026-05-08 15:20 43.67497 1.56720 37937 ft 489 kts 25°
2026-05-08 15:20 43.73664 1.60697 37940 ft 488 kts 25°
2026-05-08 15:21 43.79815 1.64673 37941 ft 487 kts 25°
2026-05-08 15:21 43.85948 1.68646 37944 ft 486 kts 25°
2026-05-08 15:22 43.92033 1.72597 37945 ft 485 kts 25°
2026-05-08 15:22 43.98144 1.76573 37949 ft 484 kts 25°
2026-05-08 15:23 44.04232 1.80544 37944 ft 483 kts 25°
2026-05-08 15:23 44.10320 1.84524 37952 ft 482 kts 25°
2026-05-08 15:24 44.16389 1.88501 37953 ft 481 kts 25°
2026-05-08 15:24 44.22401 1.92449 37959 ft 481 kts 25°
2026-05-08 15:25 44.28449 1.96430 37955 ft 480 kts 25°
2026-05-08 15:25 44.34496 2.00419 37963 ft 480 kts 25°
2026-05-08 15:26 44.40546 2.04420 37975 ft 480 kts 25°
2026-05-08 15:26 44.46601 2.08415 37976 ft 481 kts 24°
2026-05-08 15:27 44.52655 2.12430 37977 ft 481 kts 24°
2026-05-08 15:27 44.58696 2.16454 37969 ft 480 kts 24°
2026-05-08 15:28 44.64688 2.20454 37973 ft 480 kts 24°
2026-05-08 15:28 44.70715 2.24487 37969 ft 479 kts 24°
2026-05-08 15:29 44.76732 2.28521 37968 ft 479 kts 24°
2026-05-08 15:29 44.82747 2.32563 37967 ft 478 kts 24°
2026-05-08 15:30 44.88759 2.36613 37963 ft 478 kts 24°
2026-05-08 15:30 44.94749 2.40657 37967 ft 477 kts 24°
2026-05-08 15:31 45.00738 2.44710 37967 ft 477 kts 24°
2026-05-08 15:31 45.06729 2.48774 37973 ft 477 kts 24°
2026-05-08 15:32 45.12677 2.52818 37980 ft 477 kts 24°
2026-05-08 15:32 45.18663 2.56898 37979 ft 477 kts 24°
2026-05-08 15:33 45.24640 2.60981 37989 ft 476 kts 24°
2026-05-08 15:33 45.30611 2.65069 37987 ft 476 kts 23°
2026-05-08 15:34 45.36579 2.69166 37982 ft 475 kts 23°
2026-05-08 15:34 45.42492 2.73234 37982 ft 475 kts 23°
2026-05-08 15:35 45.48441 2.77337 37986 ft 475 kts 23°
2026-05-08 15:35 45.54382 2.81445 37972 ft 475 kts 23°
2026-05-08 15:36 45.59366 2.84898 37976 ft 474 kts 23°
2026-05-08 15:36 45.66278 2.89701 37950 ft 475 kts 23°
2026-05-08 15:37 45.72210 2.93834 37958 ft 475 kts 22°
2026-05-08 15:37 45.78153 2.97964 37939 ft 474 kts 22°
2026-05-08 15:38 45.84107 3.02075 37939 ft 475 kts 22°
2026-05-08 15:38 45.90055 3.06192 37960 ft 475 kts 22°
2026-05-08 15:39 45.96004 3.10329 37945 ft 475 kts 22°
2026-05-08 15:39 46.01919 3.14456 37954 ft 476 kts 22°
2026-05-08 15:40 46.07881 3.18626 37946 ft 477 kts 22°
2026-05-08 15:40 46.13849 3.22809 37950 ft 477 kts 22°
2026-05-08 15:41 46.19819 3.27005 37943 ft 477 kts 22°
2026-05-08 15:41 46.25805 3.31221 37941 ft 478 kts 22°
2026-05-08 15:42 46.31745 3.35417 37948 ft 478 kts 22°
2026-05-08 15:42 46.37716 3.39644 37955 ft 478 kts 22°
2026-05-08 15:43 46.43687 3.43881 37955 ft 478 kts 22°
2026-05-08 15:43 46.49652 3.48126 37964 ft 477 kts 22°
2026-05-08 15:44 46.55613 3.52379 37968 ft 476 kts 22°
2026-05-08 15:44 46.60562 3.55918 37963 ft 476 kts 22°
2026-05-08 15:45 46.67461 3.60865 37968 ft 475 kts 22°
2026-05-08 15:45 46.73398 3.65133 37971 ft 475 kts 22°
2026-05-08 15:46 46.78317 3.68683 37969 ft 474 kts 22°
2026-05-08 15:46 46.84226 3.72963 37973 ft 474 kts 22°
2026-05-08 15:47 46.90123 3.77250 37979 ft 473 kts 22°
2026-05-08 15:47 46.96014 3.81543 37973 ft 473 kts 22°
2026-05-08 15:48 47.04842 3.87997 37988 ft 472 kts 22°
2026-05-08 15:49 47.10716 3.92304 37983 ft 472 kts 22°
2026-05-08 15:49 47.16577 3.96612 37987 ft 471 kts 22°
2026-05-08 15:50 47.22399 4.00902 37993 ft 470 kts 22°
2026-05-08 15:50 47.26433 4.03881 37992 ft 470 kts 22°
2026-05-08 15:51 47.32280 4.08208 38002 ft 470 kts 22°
2026-05-08 15:51 47.38110 4.12533 37999 ft 469 kts 22°
2026-05-08 15:52 47.43942 4.16870 38002 ft 468 kts 22°
2026-05-08 15:52 47.49729 4.21184 37997 ft 468 kts 22°
2026-05-08 15:53 47.55546 4.25532 38003 ft 468 kts 22°
2026-05-08 15:53 47.61367 4.29893 38005 ft 469 kts 22°
2026-05-08 15:54 47.67189 4.34266 38004 ft 469 kts 22°
2026-05-08 15:54 47.73015 4.38653 38011 ft 470 kts 22°
2026-05-08 15:55 47.78847 4.43056 38014 ft 470 kts 22°
2026-05-08 15:55 47.87616 4.49696 38021 ft 472 kts 22°
2026-05-08 15:56 47.93476 4.54148 38025 ft 473 kts 23°
2026-05-08 15:56 47.99312 4.58593 38022 ft 474 kts 23°
2026-05-08 15:57 48.05190 4.63082 38028 ft 475 kts 23°
2026-05-08 15:57 48.11083 4.67595 38027 ft 476 kts 23°
2026-05-08 15:58 48.16980 4.72121 38028 ft 477 kts 23°
2026-05-08 15:58 48.22884 4.76666 38036 ft 477 kts 23°
2026-05-08 15:59 48.28759 4.81199 38028 ft 478 kts 23°
2026-05-08 15:59 48.34705 4.85800 38037 ft 478 kts 23°
2026-05-08 16:00 48.40587 4.90363 38026 ft 479 kts 24°
2026-05-08 16:00 48.46510 4.94970 38026 ft 479 kts 24°
2026-05-08 16:01 48.52425 4.99583 38025 ft 478 kts 24°
2026-05-08 16:01 48.58340 5.04207 38025 ft 478 kts 24°
2026-05-08 16:02 48.64250 5.08841 38026 ft 478 kts 24°
2026-05-08 16:02 48.70164 5.13490 38029 ft 478 kts 24°
2026-05-08 16:03 48.76031 5.18114 38033 ft 478 kts 24°
2026-05-08 16:03 48.81930 5.22776 38037 ft 478 kts 24°
2026-05-08 16:04 48.87821 5.27444 38051 ft 478 kts 25°
2026-05-08 16:04 48.93721 5.32131 38061 ft 478 kts 25°
2026-05-08 16:05 48.99623 5.36833 38056 ft 478 kts 25°
2026-05-08 16:05 49.05479 5.41511 38059 ft 478 kts 25°
2026-05-08 16:06 49.11367 5.46227 38063 ft 478 kts 25°
2026-05-08 16:06 49.17259 5.50959 38055 ft 478 kts 25°
2026-05-08 16:07 49.23153 5.55706 38062 ft 478 kts 25°
2026-05-08 16:07 49.29040 5.60461 38064 ft 478 kts 25°
2026-05-08 16:08 49.34929 5.65231 38066 ft 478 kts 25°
2026-05-08 16:08 49.40710 5.69930 38047 ft 460 kts 25°
2026-05-08 16:09 49.45389 5.73741 38069 ft 457 kts 25°
2026-05-08 16:09 49.49119 5.76783 37772 ft 460 kts 25°
2026-05-08 16:09 49.51932 5.79080 37457 ft 454 kts 25°
2026-05-08 16:10 49.54707 5.81354 37022 ft 450 kts 26°
2026-05-08 16:10 49.57387 5.83810 36627 ft 446 kts 30°
2026-05-08 16:10 49.59981 5.86399 36249 ft 443 kts 31°
2026-05-08 16:10 49.62534 5.89022 35853 ft 440 kts 31°
2026-05-08 16:11 49.65075 5.91640 35459 ft 437 kts 31°
2026-05-08 16:11 49.67598 5.94223 35063 ft 434 kts 31°
2026-05-08 16:11 49.70111 5.96779 34670 ft 431 kts 31°
2026-05-08 16:11 49.72590 5.99289 34269 ft 429 kts 31°
2026-05-08 16:12 49.75083 6.01811 33847 ft 427 kts 31°
2026-05-08 16:12 49.77558 6.04317 33407 ft 424 kts 31°
2026-05-08 16:12 49.80022 6.06813 32998 ft 421 kts 31°
2026-05-08 16:12 49.82462 6.09288 32610 ft 418 kts 31°
2026-05-08 16:13 49.85014 6.11374 32213 ft 412 kts 19°
2026-05-08 16:13 49.87737 6.12656 31846 ft 406 kts
2026-05-08 16:13 49.90533 6.13177 31457 ft 400 kts 358°
2026-05-08 16:13 49.93306 6.13202 31109 ft 397 kts 357°
2026-05-08 16:14 49.96063 6.13164 30746 ft 394 kts 357°
2026-05-08 16:14 49.98798 6.13122 30376 ft 392 kts 357°
2026-05-08 16:14 50.01518 6.13095 29992 ft 390 kts 358°
2026-05-08 16:14 50.04228 6.13084 29564 ft 387 kts 358°
2026-05-08 16:15 50.06877 6.13086 29199 ft 384 kts 358°
2026-05-08 16:15 50.09546 6.13095 28803 ft 382 kts 358°
2026-05-08 16:15 50.12197 6.13108 28440 ft 379 kts 358°
2026-05-08 16:15 50.14831 6.13121 28047 ft 377 kts 358°
2026-05-08 16:16 50.17453 6.13134 27690 ft 375 kts 358°
2026-05-08 16:16 50.20052 6.13147 27310 ft 373 kts 358°
2026-05-08 16:16 50.22640 6.13160 26943 ft 371 kts 358°
2026-05-08 16:16 50.25215 6.13172 26573 ft 369 kts 358°
2026-05-08 16:17 50.27778 6.13183 26213 ft 367 kts 358°
2026-05-08 16:17 50.29470 6.13200 25972 ft 367 kts 360°
2026-05-08 16:17 50.32859 6.13771 25495 ft 366 kts
2026-05-08 16:17 50.35365 6.14431 25131 ft 365 kts
2026-05-08 16:18 50.37859 6.15118 24768 ft 363 kts
2026-05-08 16:18 50.40336 6.15792 24408 ft 361 kts
2026-05-08 16:18 50.42803 6.16446 24058 ft 359 kts
2026-05-08 16:18 50.45264 6.17086 23704 ft 357 kts
2026-05-08 16:19 50.47676 6.17706 23299 ft 355 kts
2026-05-08 16:19 50.50113 6.18331 22912 ft 353 kts
2026-05-08 16:19 50.52531 6.18949 22539 ft 350 kts
2026-05-08 16:19 50.54927 6.19561 22190 ft 348 kts
2026-05-08 16:20 50.57306 6.20169 21844 ft 345 kts
2026-05-08 16:20 50.59669 6.20760 21492 ft 342 kts
2026-05-08 16:20 50.62012 6.21338 21149 ft 340 kts
2026-05-08 16:20 50.64342 6.21914 20815 ft 338 kts
2026-05-08 16:21 50.66662 6.22489 20473 ft 336 kts
2026-05-08 16:21 50.68962 6.23061 20137 ft 334 kts
2026-05-08 16:21 50.71230 6.23624 19808 ft 332 kts
2026-05-08 16:21 50.73506 6.24186 19476 ft 330 kts
2026-05-08 16:22 50.75744 6.24719 19148 ft 329 kts
2026-05-08 16:22 50.78003 6.25251 18818 ft 328 kts
2026-05-08 16:22 50.80255 6.25781 18486 ft 327 kts
2026-05-08 16:22 50.82499 6.26312 18125 ft 325 kts
2026-05-08 16:23 50.84738 6.26843 17767 ft 324 kts
2026-05-08 16:23 50.86957 6.27371 17420 ft 322 kts
2026-05-08 16:23 50.89168 6.27899 17089 ft 320 kts
2026-05-08 16:23 50.91362 6.28423 16756 ft 318 kts
2026-05-08 16:24 50.93540 6.28945 16435 ft 316 kts
2026-05-08 16:24 50.95377 6.29384 16170 ft 315 kts
2026-05-08 16:24 50.97285 6.29842 15886 ft 313 kts
2026-05-08 16:25 50.99437 6.30358 15579 ft 312 kts
2026-05-08 16:25 51.01548 6.30866 15255 ft 310 kts
2026-05-08 16:25 51.03675 6.31378 14943 ft 309 kts
2026-05-08 16:25 51.05794 6.31888 14630 ft 307 kts
2026-05-08 16:26 51.07903 6.32396 14338 ft 306 kts
2026-05-08 16:26 51.10003 6.32903 14022 ft 305 kts
2026-05-08 16:26 51.12101 6.33409 13685 ft 304 kts
2026-05-08 16:26 51.14191 6.33915 13347 ft 303 kts
2026-05-08 16:27 51.16265 6.34417 13014 ft 301 kts
2026-05-08 16:27 51.18331 6.34917 12703 ft 300 kts
2026-05-08 16:27 51.20389 6.35416 12380 ft 299 kts
2026-05-08 16:27 51.22442 6.35915 12072 ft 298 kts
2026-05-08 16:28 51.24496 6.36414 11757 ft 298 kts
2026-05-08 16:28 51.26547 6.36914 11446 ft 298 kts
2026-05-08 16:28 51.28595 6.37414 11138 ft 297 kts
2026-05-08 16:28 51.30641 6.37912 10830 ft 297 kts
2026-05-08 16:29 51.32682 6.38408 10526 ft 297 kts
2026-05-08 16:29 51.34724 6.38876 10234 ft 295 kts
2026-05-08 16:29 51.36685 6.38448 10090 ft 286 kts 337°
2026-05-08 16:29 51.38361 6.36787 9760 ft 284 kts 314°
2026-05-08 16:30 51.39630 6.34387 9478 ft 281 kts 307°
2026-05-08 16:30 51.40818 6.31887 9165 ft 281 kts 306°
2026-05-08 16:30 51.41990 6.29389 8865 ft 280 kts 306°
2026-05-08 16:30 51.43164 6.26897 8566 ft 280 kts 306°
2026-05-08 16:31 51.44342 6.24411 8267 ft 279 kts 306°
2026-05-08 16:31 51.45520 6.21934 7977 ft 278 kts 306°
2026-05-08 16:31 51.46694 6.19472 7674 ft 278 kts 307°
2026-05-08 16:31 51.47869 6.17012 7391 ft 277 kts 307°
2026-05-08 16:32 51.49041 6.14553 7097 ft 276 kts 307°
2026-05-08 16:32 51.50206 6.12108 6805 ft 276 kts 307°
2026-05-08 16:32 51.51360 6.09658 6514 ft 275 kts 303°
2026-05-08 16:32 51.52072 6.06839 6173 ft 275 kts 279°
2026-05-08 16:33 51.52192 6.03811 5860 ft 275 kts 271°
2026-05-08 16:33 51.52230 6.00742 5529 ft 275 kts 271°
2026-05-08 16:33 51.52276 5.97652 5156 ft 277 kts 271°
2026-05-08 16:33 51.52331 5.94570 4848 ft 273 kts 272°
2026-05-08 16:34 51.52387 5.91611 4718 ft 257 kts 272°
2026-05-08 16:34 51.52423 5.89747 4631 ft 248 kts 272°
2026-05-08 16:34 51.52475 5.87066 4539 ft 232 kts 272°
2026-05-08 16:34 51.52684 5.84595 4427 ft 217 kts 294°
2026-05-08 16:35 51.53580 5.82766 4402 ft 210 kts 324°
2026-05-08 16:35 51.54925 5.81795 4292 ft 217 kts 350°
2026-05-08 16:35 51.56453 5.81666 4067 ft 221 kts
2026-05-08 16:35 51.57993 5.81745 3815 ft 221 kts
2026-05-08 16:36 51.59464 5.82346 3544 ft 220 kts 32°
2026-05-08 16:36 51.60410 5.84195 3305 ft 217 kts 72°
2026-05-08 16:36 51.60674 5.86567 3109 ft 215 kts 84°
2026-05-08 16:36 51.60770 5.88965 2874 ft 213 kts 88°
2026-05-08 16:37 51.60763 5.91311 2675 ft 206 kts 90°
2026-05-08 16:37 51.60717 5.93578 2408 ft 198 kts 90°
2026-05-08 16:37 51.60667 5.95723 2159 ft 186 kts 91°
2026-05-08 16:37 51.60619 5.97741 1917 ft 175 kts 91°
2026-05-08 16:38 51.60574 5.99595 1683 ft 159 kts 90°
2026-05-08 16:38 51.60534 6.01314 1489 ft 152 kts 90°
2026-05-08 16:38 51.60503 6.03011 1278 ft 150 kts 90°
2026-05-08 16:38 51.60457 6.04665 1073 ft 146 kts 90°
2026-05-08 16:39 51.60424 6.06291 913 ft 146 kts 90°
2026-05-08 16:39 51.60387 6.07945 713 ft 150 kts 91°
2026-05-08 16:39 51.60346 6.09622 525 ft 150 kts 91°
2026-05-08 16:39 51.60310 6.11293 302 ft 149 kts 90°
2026-05-08 16:40 51.60275 6.12926 115 ft 142 kts 91°
2026-05-08 16:40 51.60244 6.14316 113 ft 103 kts 92°
2026-05-08 16:40 51.60224 6.15228 114 ft 60 kts 92°
2026-05-08 16:40 51.60214 6.15656 119 ft 22 kts 92°
2026-05-08 16:41 51.60210 6.15848 116 ft 9 kts 91°
2026-05-08 16:41 51.60190 6.15943 112 ft 9 kts 142°
2026-05-08 16:41 51.60126 6.15951 113 ft 10 kts 182°
2026-05-08 16:42 51.60022 6.15847 117 ft 10 kts 270°
2026-05-08 16:42 51.60025 6.15710 116 ft 14 kts 272°
2026-05-08 16:42 51.60030 6.15527 115 ft 17 kts 272°
2026-05-08 16:42 51.60033 6.15337 114 ft 17 kts 271°
2026-05-08 16:43 51.60038 6.15154 114 ft 16 kts 272°
2026-05-08 16:43 51.60042 6.14978 113 ft 15 kts 272°
2026-05-08 16:43 51.60045 6.14848 112 ft 9 kts 266°
2026-05-08 16:43 51.59999 6.14800 112 ft 9 kts 183°
2026-05-08 16:44 51.59948 6.14797 112 ft 6 kts 182°
2026-05-08 16:44 51.59923 6.14810 113 ft 4 kts 125°
2026-05-08 16:44 51.59920 6.14851 113 ft 4 kts 93°
2026-05-08 16:44 51.59920 6.14873 111 ft 0 kts 92°